Hourly Weather Montigny-les-Metz

Today, 14 July, Tuesday

Time Temperature Precipitation Wind Pressure Humidity
00:00 +18°C° 0 mm 1 mps 747 mmHg 78%
01:00 +18°C° 0 mm 1 mps 747 mmHg 78%
02:00 +16°C° 0 mm 1 mps 746 mmHg 78%
03:00 +16°C° 0 mm 1 mps 746 mmHg 78%
04:00 +18°C° 0 mm 1 mps 746 mmHg 77%
05:00 +18°C° 0 mm 1 mps 746 mmHg 75%
06:00 +19°C° 0 mm 1 mps 746 mmHg 73%
07:00 +20°C° 0 mm 1 mps 746 mmHg 68%
08:00 +22°C° 0 mm 1 mps 746 mmHg 63%
09:00 +23°C° 0 mm 1 mps 746 mmHg 58%
10:00 +24°C° 0 mm 2 mps 746 mmHg 55%
11:00 +25°C° 0 mm 3 mps 745 mmHg 53%
12:00 +25°C° 0 mm 4 mps 745 mmHg 51%
13:00 +25°C° 0 mm 5 mps 745 mmHg 52%
14:00 +23°C° 0 mm 5 mps 745 mmHg 54%
15:00 +22°C° 0 mm 5 mps 744 mmHg 55%
16:00 +21°C° 0 mm 4 mps 744 mmHg 60%
17:00 +20°C° 0 mm 4 mps 744 mmHg 65%
18:00 +19°C° 0 mm 3 mps 744 mmHg 70%
19:00 +18°C° 0 mm 2 mps 744 mmHg 76%
20:00 +17°C° 0 mm 2 mps 744 mmHg 82%
21:00 +15°C° 0 mm 1 mps 744 mmHg 89%
22:00 +15°C° 0 mm 1 mps 744 mmHg 89%
23:00 +15°C° 0 mm 1 mps 744 mmHg 90%

Tomorrow, 15 July, Wednesday

Time Temperature Precipitation Wind Pressure Humidity
00:00 +15°C° 0 mm 1 mps 744 mmHg 90%
01:00 +15°C° 0.7 mm 1 mps 744 mmHg 91%
02:00 +15°C° 0.7 mm 1 mps 744 mmHg 91%
03:00 +15°C° 0.7 mm 1 mps 743 mmHg 92%
04:00 +15°C° 1 mm 1 mps 744 mmHg 93%
05:00 +15°C° 1 mm 1 mps 744 mmHg 94%
06:00 +15°C° 1 mm 2 mps 744 mmHg 95%
07:00 +16°C° 0.5 mm 2 mps 744 mmHg 92%
08:00 +17°C° 0.5 mm 2 mps 744 mmHg 88%
09:00 +18°C° 0.5 mm 3 mps 745 mmHg 85%
10:00 +19°C° 0.2 mm 3 mps 745 mmHg 76%
11:00 +20°C° 0.2 mm 3 mps 745 mmHg 66%
12:00 +22°C° 0.2 mm 4 mps 745 mmHg 57%
13:00 +22°C° 0 mm 4 mps 745 mmHg 57%
14:00 +22°C° 0 mm 4 mps 745 mmHg 57%
15:00 +22°C° 0 mm 4 mps 745 mmHg 56%
16:00 +21°C° 0.1 mm 4 mps 745 mmHg 62%
17:00 +20°C° 0.1 mm 3 mps 745 mmHg 68%
18:00 +19°C° 0.1 mm 3 mps 745 mmHg 73%
19:00 +18°C° 0 mm 2 mps 746 mmHg 75%
20:00 +17°C° 0 mm 2 mps 746 mmHg 77%
21:00 +16°C° 0 mm 1 mps 747 mmHg 79%
22:00 +15°C° 0 mm 1 mps 747 mmHg 80%
23:00 +15°C° 0 mm 1 mps 747 mmHg 81%

Day after tomorrow, 16 July, Thursday

Time Temperature Precipitation Wind Pressure Humidity
00:00 +15°C° 0 mm 1 mps 747 mmHg 82%
01:00 +15°C° 0 mm 1 mps 747 mmHg 82%
02:00 +15°C° 0 mm 1 mps 747 mmHg 82%
03:00 +15°C° 0 mm 1 mps 747 mmHg 82%
04:00 +15°C° 0 mm 1 mps 748 mmHg 83%
05:00 +16°C° 0 mm 1 mps 748 mmHg 83%
06:00 +16°C° 0 mm 1 mps 748 mmHg 83%
07:00 +18°C° 0 mm 1 mps 748 mmHg 78%
08:00 +18°C° 0 mm 2 mps 748 mmHg 73%
09:00 +19°C° 0 mm 2 mps 748 mmHg 68%
10:00 +19°C° 0 mm 3 mps 749 mmHg 70%
11:00 +18°C° 0 mm 3 mps 749 mmHg 72%
12:00 +18°C° 0 mm 4 mps 749 mmHg 74%
13:00 +17°C° 0 mm 4 mps 749 mmHg 77%
14:00 +17°C° 0 mm 4 mps 748 mmHg 79%
15:00 +17°C° 0 mm 3 mps 748 mmHg 81%
16:00 +17°C° 0 mm 3 mps 748 mmHg 82%
17:00 +17°C° 0 mm 3 mps 748 mmHg 82%
18:00 +17°C° 0 mm 2 mps 748 mmHg 83%
19:00 +17°C° 0 mm 2 mps 748 mmHg 86%
20:00 +17°C° 0 mm 2 mps 749 mmHg 89%
21:00 +16°C° 0 mm 1 mps 749 mmHg 91%
22:00 +16°C° 0 mm 1 mps 749 mmHg 92%
23:00 +16°C° 0 mm 1 mps 749 mmHg 92%

17 July, Friday

Time Temperature Precipitation Wind Pressure Humidity
00:00 +16°C° 0 mm 1 mps 748 mmHg 93%
01:00 +16°C° 0 mm 1 mps 748 mmHg 93%
02:00 +16°C° 0 mm 1 mps 748 mmHg 93%
03:00 +15°C° 0 mm 1 mps 748 mmHg 94%
04:00 +16°C° 0 mm 2 mps 748 mmHg 92%
05:00 +16°C° 0 mm 2 mps 748 mmHg 90%
06:00 +16°C° 0 mm 2 mps 748 mmHg 88%
07:00 +17°C° 0 mm 2 mps 748 mmHg 83%
08:00 +18°C° 0 mm 2 mps 748 mmHg 79%
09:00 +19°C° 0 mm 2 mps 749 mmHg 74%
10:00 +20°C° 0 mm 2 mps 749 mmHg 71%
11:00 +20°C° 0 mm 2 mps 749 mmHg 69%
12:00 +21°C° 0 mm 2 mps 749 mmHg 66%
13:00 +23°C° 0 mm 2 mps 748 mmHg 65%
14:00 +23°C° 0 mm 2 mps 748 mmHg 65%
15:00 +23°C° 0 mm 2 mps 748 mmHg 64%
16:00 +23°C° 0.1 mm 2 mps 748 mmHg 68%
17:00 +23°C° 0.1 mm 2 mps 748 mmHg 72%
18:00 +21°C° 0.1 mm 2 mps 748 mmHg 76%
19:00 +20°C° 0 mm 2 mps 748 mmHg 80%
20:00 +20°C° 0 mm 1 mps 748 mmHg 84%
21:00 +18°C° 0 mm 1 mps 748 mmHg 87%
22:00 +18°C° 0 mm 1 mps 748 mmHg 88%
23:00 +16°C° 0 mm 1 mps 748 mmHg 89%

18 July, Saturday

Time Temperature Precipitation Wind Pressure Humidity
00:00 +16°C° 0 mm 1 mps 748 mmHg 89%
01:00 +16°C° 0 mm 1 mps 748 mmHg 90%
02:00 +14°C° 0 mm 0 mps 748 mmHg 90%
03:00 +14°C° 0 mm 0 mps 748 mmHg 90%
04:00 +15°C° 0 mm 0 mps 748 mmHg 88%
05:00 +16°C° 0 mm 0 mps 748 mmHg 87%
06:00 +16°C° 0 mm 0 mps 748 mmHg 85%
07:00 +18°C° 0 mm 0 mps 748 mmHg 79%
08:00 +20°C° 0 mm 0 mps 748 mmHg 73%
09:00 +22°C° 0 mm 0 mps 748 mmHg 67%
10:00 +24°C° 0.1 mm 1 mps 748 mmHg 64%
11:00 +25°C° 0.1 mm 1 mps 748 mmHg 60%
12:00 +26°C° 0.1 mm 1 mps 747 mmHg 57%
13:00 +26°C° 0.1 mm 1 mps 747 mmHg 57%
14:00 +26°C° 0.1 mm 1 mps 747 mmHg 57%
15:00 +26°C° 0.1 mm 1 mps 747 mmHg 57%
16:00 +26°C° 0.1 mm 1 mps 746 mmHg 62%
17:00 +25°C° 0.1 mm 1 mps 746 mmHg 67%
18:00 +24°C° 0.1 mm 1 mps 746 mmHg 72%
19:00 +23°C° 0 mm 1 mps 746 mmHg 76%
20:00 +21°C° 0 mm 1 mps 746 mmHg 79%
21:00 +20°C° 0 mm 1 mps 747 mmHg 82%
22:00 +17°C° 0 mm 0 mps 746 mmHg 83%
23:00 +17°C° 0 mm 0 mps 746 mmHg 84%

19 July, Sunday

Time Temperature Precipitation Wind Pressure Humidity
00:00 +16°C° 0 mm 0 mps 746 mmHg 86%
01:00 +16°C° 0 mm 0 mps 746 mmHg 86%
02:00 +15°C° 0 mm 0 mps 746 mmHg 87%
03:00 +15°C° 0 mm 0 mps 746 mmHg 87%
04:00 +16°C° 0 mm 0 mps 746 mmHg 86%
05:00 +17°C° 0 mm 0 mps 746 mmHg 84%
06:00 +18°C° 0 mm 0 mps 746 mmHg 82%
07:00 +20°C° 0 mm 0 mps 746 mmHg 76%
08:00 +21°C° 0 mm 0 mps 746 mmHg 70%
09:00 +25°C° 0 mm 1 mps 746 mmHg 64%
10:00 +26°C° 0.1 mm 1 mps 746 mmHg 60%
11:00 +27°C° 0.1 mm 2 mps 746 mmHg 56%
12:00 +28°C° 0.1 mm 2 mps 746 mmHg 52%
13:00 +28°C° 0 mm 2 mps 745 mmHg 52%
14:00 +27°C° 0 mm 3 mps 745 mmHg 52%
15:00 +27°C° 0 mm 3 mps 745 mmHg 52%
16:00 +27°C° 0 mm 3 mps 745 mmHg 56%
17:00 +26°C° 0 mm 3 mps 745 mmHg 60%
18:00 +25°C° 0 mm 2 mps 745 mmHg 64%
19:00 +23°C° 0 mm 2 mps 745 mmHg 69%
20:00 +21°C° 0 mm 2 mps 745 mmHg 74%
21:00 +19°C° 0 mm 2 mps 746 mmHg 79%
22:00 +18°C° 0 mm 2 mps 746 mmHg 80%
23:00 +17°C° 0 mm 2 mps 746 mmHg 82%
Show more